Maun, Botswana

10:08 PM CAT on June 28, 2017 (GMT +0200)
Maun

Weather History for FBMN - November, 2012

Change the Weather History Date:

Monday, November 5, 2012

  Actual Average Record
Temperature  
Mean Temperature 80 °F -  
Max Temperature 98 °F 91 °F 102 °F (1996)
Min Temperature 63 °F 69 °F 63 °F (2012)
Cooling Degree Days 16    
Growing Degree Days 30 (Base 50)    
Moisture  
Dew Point 52 °F    
Average Humidity 30    
Maximum Humidity 52    
Minimum Humidity 15    
Precipitation  
Precipitation 0.00 in - - ()
Sea Level Pressure  
Sea Level Pressure 29.98 in    
Wind  
Wind Speed 5 mph ()    
Max Wind Speed 9 mph    
Max Gust Speed -    
Visibility 6.1 miles    
Events      
Averages and records for this station are not official NWS values.
T = Trace of Precipitation, MM = Missing Value Source: Averaged Metar Reports

Daily Weather History Graph

Daily Weather History Graph

Search for Another Location

Airport or City:

Trip Planner

Search our weather history database for the weather conditions in past years. The results will help you decide how hot, cold, wet, or windy it might be!

Date:

Astronomy

Nov. 05, 2012 Rise Set
Actual Time 5:42 AM CAT 6:37 PM CAT
Civil Twilight 5:19 AM CAT 7:00 PM CAT
Nautical Twilight 4:52 AM CAT 7:27 PM CAT
Astronomical Twilight 4:24 AM CAT 7:55 PM CAT
Moon 11:56 PM CAT (11/5) 10:42 AM CAT (11/5)
Length of Visible Light 13h 41m
Length of Day
12h 54m
Waning Gibbous, 66% of the Moon is Illuminated
Nov 5
Waning Gibbous
Nov 7
Last Quarter
Nov 14
New
Nov 20
First Quarter
Nov 28
Full

Hourly Weather History & Observations

Time (CAT) Temp. Heat Index Dew Point Humidity Pressure Visibility Wind Dir Wind Speed Gust Speed Precip Events Conditions
5:00 AM 68.0 °F - 50.0 °F 52% 30.01 in - Variable 2.3 mph - N/A   Clear
6:00 AM 66.2 °F - 48.2 °F 52% 30.01 in - East 8.1 mph - N/A   Clear
7:00 AM 71.6 °F - 48.2 °F 43% 30.04 in - East 4.6 mph - N/A   Clear
8:00 AM 79 °F - 51 °F 27%  in 6 mi ENE 4.6 mph - -   Clear
8:00 AM 78.8 °F - 51.8 °F 39% 30.06 in - ENE 4.6 mph - N/A   Clear
9:00 AM 86.0 °F 84.9 °F 57.2 °F 37% 30.06 in - North 9.2 mph - N/A   Clear
10:00 AM 89.6 °F 88.1 °F 57.2 °F 33% 30.04 in - North 9.2 mph - N/A   Clear
11:00 AM 93.2 °F - 51.8 °F 24% 30.04 in 6.2 mi Variable 2.3 mph - N/A   Partly Cloudy
12:00 PM 95.0 °F 93.0 °F 55.4 °F 26% 30.01 in 6.2 mi ENE 6.9 mph - N/A   Partly Cloudy
1:00 PM 95.0 °F - 51.8 °F 23% 29.98 in 6.2 mi North 5.8 mph - N/A   Partly Cloudy
2:00 PM 96 °F - 53 °F 15%  in 6 mi SSW 4.6 mph - -   Scattered Clouds
2:00 PM 95.0 °F 92.7 °F 53.6 °F 25% 29.95 in 6.2 mi SSW 4.6 mph - N/A   Partly Cloudy
3:00 PM 96.8 °F 95.1 °F 55.4 °F 25% 29.92 in 6.2 mi ESE 6.9 mph - N/A   Scattered Clouds
4:00 PM 98.6 °F 97.2 °F 55.4 °F 24% 29.89 in 6.2 mi SW 6.9 mph - N/A   Scattered Clouds
5:00 PM 98.6 °F 97.2 °F 55.4 °F 24% 29.89 in 6.2 mi South 4.6 mph - N/A   Partly Cloudy
6:00 PM 96.8 °F - 50.0 °F 20% 29.89 in - NNW 5.8 mph - N/A   Clear
7:00 PM 93.2 °F 90.8 °F 53.6 °F 26% 29.92 in - WNW 3.5 mph - N/A   Clear
8:00 PM 87 °F - 53 °F 22%  in 6 mi ESE 3.5 mph - -   Smoke
8:00 PM 86.0 °F 84.2 °F 53.6 °F 33% 29.95 in - ESE 3.5 mph - N/A   Clear
9:00 PM 82.4 °F 81.4 °F 53.6 °F 37% 29.95 in - South 3.5 mph - N/A   Clear
10:00 PM 86.0 °F - 48.2 °F 27% 29.98 in - SSE 5.8 mph - N/A   Clear
11:00 PM 84.2 °F - 46.4 °F 27% 29.98 in - SSE 4.6 mph - N/A   Clear